Laramie, WY

11:18 PM MDT on May 21, 2018 (GMT -0600)
Laramie Regional

Weather History for KLAR - January, 2015

Change the Weather History Date:

Friday, January 30, 2015

  Actual Average Record
Temperature  
Mean Temperature 32 °F 22 °F  
Max Temperature 38 °F 33 °F 56 °F (1986)
Min Temperature 25 °F 10 °F -24 °F (1980)
Degree Days  
Heating Degree Days 33 43  
Month to date heating degree days 1149 1291  
Since 1 July heating degree days 4590 4964  
Cooling Degree Days 0 0  
Month to date cooling degree days 0 0  
Year to date cooling degree days 0 0  
Moisture  
Dew Point 25 °F    
Average Humidity 76    
Maximum Humidity 88    
Minimum Humidity 64    
Precipitation  
Precipitation 0.00 in 0.01 in 0.08 in (2014)
Month to date precipitation 0.05 0.26  
Year to date precipitation 0.05 0.26  
Sea Level Pressure  
Sea Level Pressure 30.15 in    
Wind  
Wind Speed 5 mph (NE)    
Max Wind Speed 10 mph    
Max Gust Speed 13 mph    
Visibility 10 miles    
Events      
T = Trace of Precipitation, MM = Missing Value Source: NWS Daily Summary

Daily Weather History Graph

Daily Weather History Graph

Search for Another Location

Airport or City:

Astronomy

Jan. 30, 2015 Rise Set
Actual Time 7:16 AM MST 5:16 PM MST
Civil Twilight 6:46 AM MST 5:45 PM MST
Nautical Twilight 6:13 AM MST 6:18 PM MST
Astronomical Twilight 5:40 AM MST 6:51 PM MST
Moon 1:53 PM MST (1/30) 3:47 AM MST (1/30)
Length of Visible Light 10h 59m
Length of Day
10h 00m
Waxing Gibbous, 84% of the Moon is Illuminated
Jan 30
Waxing Gibbous
Feb 3
Full
Feb 11
Last Quarter
Feb 18
New
Feb 25
First Quarter

Hourly Weather History & Observations

Time (MST) Temp. Windchill Dew Point Humidity Pressure Visibility Wind Dir Wind Speed Gust Speed Precip Events Conditions
12:53 AM 28.0 °F 20.0 °F 23.0 °F 81% 30.25 in 10.0 mi South 8.1 mph - N/A   Clear
1:53 AM 27.0 °F 18.0 °F 23.0 °F 85% 30.23 in 10.0 mi South 9.2 mph - N/A   Clear
2:53 AM 25.0 °F 20.7 °F 21.9 °F 88% 30.24 in 10.0 mi WNW 3.5 mph - N/A   Clear
3:53 AM 27.0 °F 23.0 °F 23.0 °F 85% 30.22 in 10.0 mi SSW 3.5 mph - N/A   Clear
4:53 AM 26.1 °F - 21.9 °F 84% 30.23 in 10.0 mi Calm Calm - N/A   Clear
5:53 AM 27.0 °F - 21.9 °F 81% 30.24 in 10.0 mi Calm Calm - N/A   Clear
6:53 AM 26.1 °F 21.9 °F 21.9 °F 84% 30.25 in 10.0 mi SW 3.5 mph - N/A   Clear
7:53 AM 26.1 °F - 21.9 °F 84% 30.25 in 10.0 mi Calm Calm - N/A   Mostly Cloudy
8:53 AM 30.0 °F 26.5 °F 24.1 °F 79% 30.21 in 10.0 mi North 3.5 mph - N/A   Clear
9:53 AM 33.1 °F 30.0 °F 26.1 °F 75% 30.20 in 10.0 mi NNW 3.5 mph - N/A   Clear
10:53 AM 36.0 °F 30.3 °F 24.1 °F 62% 30.18 in 10.0 mi North 6.9 mph - N/A   Clear
11:53 AM 37.0 °F 31.6 °F 26.1 °F 65% 30.14 in 10.0 mi NNE 6.9 mph - N/A   Clear
12:53 PM 37.0 °F 31.0 °F 26.1 °F 65% 30.12 in 10.0 mi North 8.1 mph - N/A   Clear
1:53 PM 37.0 °F 31.0 °F 28.0 °F 70% 30.10 in 10.0 mi NNE 8.1 mph - N/A   Clear
2:53 PM 37.0 °F 32.4 °F 28.9 °F 73% 30.10 in 10.0 mi North 5.8 mph - N/A   Clear
3:53 PM 36.0 °F 31.1 °F 28.9 °F 76% 30.09 in 10.0 mi NNE 5.8 mph - N/A   Mostly Cloudy
4:53 PM 35.1 °F 31.0 °F 28.9 °F 78% 30.09 in 10.0 mi North 4.6 mph - N/A   Unknown
5:53 PM 33.1 °F 28.7 °F 28.9 °F 85% 30.11 in 10.0 mi NNE 4.6 mph - N/A   Overcast
6:53 PM 32.0 °F 27.5 °F 27.0 °F 82% 30.10 in 10.0 mi ENE 4.6 mph - N/A   Overcast
7:53 PM 32.0 °F 26.4 °F 26.1 °F 79% 30.09 in 10.0 mi SE 5.8 mph - N/A   Partly Cloudy
8:53 PM 30.0 °F 26.5 °F 26.1 °F 85% 30.07 in 10.0 mi SE 3.5 mph - N/A   Overcast
9:53 PM 30.0 °F 25.2 °F 21.0 °F 69% 30.03 in 10.0 mi East 4.6 mph - N/A   Overcast
10:53 PM 28.0 °F 24.2 °F 21.0 °F 75% 30.01 in 10.0 mi East 3.5 mph - N/A   Overcast
11:53 PM 28.0 °F - 21.9 °F 78% 29.99 in 10.0 mi Calm Calm - N/A   Overcast